Time,TemperatureF,DewpointF,PressureIn,WindDirection,WindDirectionDegrees,WindSpeedMPH,WindSpeedGustMPH,Humidity,HourlyPrecipIn,Conditions,Clouds,dailyrainin,SoftwareType,DateUTC
2013-11-14 00:02:00,35.2,18.4,30.33,North,359,4.0,13.0,50,0.00,,,0.00,WUHU216DAVISVP2,2013-11-14 06:02:00,
2013-11-14 00:07:00,35.1,18.3,30.33,North,356,3.0,13.0,50,0.00,,,0.00,WUHU216DAVISVP2,2013-11-14 06:07:00,
2013-11-14 00:12:00,35.1,18.3,30.33,North,355,7.0,13.0,50,0.00,,,0.00,WUHU216DAVISVP2,2013-11-14 06:12:00,
2013-11-14 00:17:00,35.1,18.3,30.33,North,357,10.0,13.0,50,0.00,,,0.00,WUHU216DAVISVP2,2013-11-14 06:17:00,
2013-11-14 00:22:00,35.1,18.8,30.33,North,8,6.0,12.0,51,0.00,,,0.00,WUHU216DAVISVP2,2013-11-14 06:22:00,
2013-11-14 00:27:00,35.0,18.7,30.32,North,4,4.0,13.0,51,0.00,,,0.00,WUHU216DAVISVP2,2013-11-14 06:27:00,
2013-11-14 00:32:00,34.9,18.6,30.32,North,8,7.0,13.0,51,0.00,,,0.00,WUHU216DAVISVP2,2013-11-14 06:32:00,
2013-11-14 00:37:00,34.8,18.5,30.32,North,3,3.0,13.0,51,0.00,,,0.00,WUHU216DAVISVP2,2013-11-14 06:37:00,
2013-11-14 00:42:00,34.7,18.4,30.32,NNE,15,3.0,13.0,51,0.00,,,0.00,WUHU216DAVISVP2,2013-11-14 06:42:00,
2013-11-14 00:47:00,34.5,18.6,30.32,North,9,6.0,12.0,52,0.00,,,0.00,WUHU216DAVISVP2,2013-11-14 06:47:00,
2013-11-14 00:52:00,34.5,18.6,30.31,North,358,5.0,11.0,52,0.00,,,0.00,WUHU216DAVISVP2,2013-11-14 06:52:00,
2013-11-14 00:57:00,34.5,18.6,30.31,North,353,8.0,11.0,52,0.00,,,0.00,WUHU216DAVISVP2,2013-11-14 06:57:00,
2013-11-14 01:02:00,34.5,18.6,30.31,North,3,5.0,11.0,52,0.00,,,0.00,WUHU216DAVISVP2,2013-11-14 07:02:00,
2013-11-14 01:07:00,34.4,18.6,30.31,North,360,6.0,11.0,52,0.00,,,0.00,WUHU216DAVISVP2,2013-11-14 07:07:00,
2013-11-14 01:12:00,34.4,18.6,30.31,North,351,6.0,11.0,52,0.00,,,0.00,WUHU216DAVISVP2,2013-11-14 07:12:00,
2013-11-14 01:17:00,34.3,18.5,30.31,NNW,341,6.0,12.0,52,0.00,,,0.00,WUHU216DAVISVP2,2013-11-14 07:17:00,
2013-11-14 01:22:00,34.3,18.5,30.31,North,352,6.0,12.0,52,0.00,,,0.00,WUHU216DAVISVP2,2013-11-14 07:22:00,
2013-11-14 01:27:00,34.3,18.5,30.31,North,353,8.0,12.0,52,0.00,,,0.00,WUHU216DAVISVP2,2013-11-14 07:27:00,
2013-11-14 01:32:00,34.3,18.5,30.31,North,352,5.0,12.0,52,0.00,,,0.00,WUHU216DAVISVP2,2013-11-14 07:32:00,
2013-11-14 01:37:00,34.2,18.8,30.30,North,359,7.0,12.0,53,0.00,,,0.00,WUHU216DAVISVP2,2013-11-14 07:37:00,
2013-11-14 01:42:00,34.1,18.8,30.30,NNW,340,4.0,12.0,53,0.00,,,0.00,WUHU216DAVISVP2,2013-11-14 07:42:00,
2013-11-14 01:47:00,33.9,19.0,30.30,North,350,4.0,12.0,54,0.00,,,0.00,WUHU216DAVISVP2,2013-11-14 07:47:00,
2013-11-14 01:52:00,33.9,19.0,30.30,North,351,8.0,12.0,54,0.00,,,0.00,WUHU216DAVISVP2,2013-11-14 07:52:00,
2013-11-14 01:57:00,33.7,18.8,30.30,NNW,341,7.0,10.0,54,0.00,,,0.00,WUHU216DAVISVP2,2013-11-14 07:57:00,
2013-11-14 02:02:00,33.8,18.9,30.30,NNW,341,5.0,10.0,54,0.00,,,0.00,WUHU216DAVISVP2,2013-11-14 08:02:00,
2013-11-14 02:07:00,33.7,19.2,30.30,NNW,331,4.0,10.0,55,0.00,,,0.00,WUHU216DAVISVP2,2013-11-14 08:07:00,
2013-11-14 02:12:00,33.5,19.0,30.30,NW,326,3.0,10.0,55,0.00,,,0.00,WUHU216DAVISVP2,2013-11-14 08:12:00,
2013-11-14 02:17:00,32.9,18.9,30.30,NW,325,5.0,10.0,56,0.00,,,0.00,WUHU216DAVISVP2,2013-11-14 08:17:00,
2013-11-14 02:22:00,32.3,18.8,30.29,NW,324,2.0,10.0,57,0.00,,,0.00,WUHU216DAVISVP2,2013-11-14 08:22:00,
2013-11-14 02:27:00,31.8,18.7,30.29,NNW,343,0.0,10.0,58,0.00,,,0.00,WUHU216DAVISVP2,2013-11-14 08:27:00,
2013-11-14 02:32:00,31.3,18.7,30.29,NNW,341,3.0,7.0,59,0.00,,,0.00,WUHU216DAVISVP2,2013-11-14 08:32:00,
2013-11-14 02:37:00,31.0,18.8,30.29,NNW,340,2.0,7.0,60,0.00,,,0.00,WUHU216DAVISVP2,2013-11-14 08:37:00,
2013-11-14 02:42:00,30.6,18.8,30.29,NNW,339,0.0,7.0,61,0.00,,,0.00,WUHU216DAVISVP2,2013-11-14 08:42:00,
2013-11-14 02:47:00,30.4,18.6,30.29,NNW,339,3.0,6.0,61,0.00,,,0.00,WUHU216DAVISVP2,2013-11-14 08:47:00,
2013-11-14 02:52:00,30.0,18.6,30.29,NNW,338,5.0,6.0,62,0.00,,,0.00,WUHU216DAVISVP2,2013-11-14 08:52:00,
2013-11-14 02:57:00,29.7,18.7,30.28,NNW,337,5.0,5.0,63,0.00,,,0.00,WUHU216DAVISVP2,2013-11-14 08:57:00,
2013-11-14 03:02:00,29.5,18.5,30.28,NNW,337,4.0,5.0,63,0.00,,,0.00,WUHU216DAVISVP2,2013-11-14 09:02:00,
2013-11-14 03:07:00,29.3,18.7,30.28,NNW,336,3.0,5.0,64,0.00,,,0.00,WUHU216DAVISVP2,2013-11-14 09:07:00,
2013-11-14 03:12:00,29.2,18.6,30.28,NNW,332,4.0,7.0,64,0.00,,,0.00,WUHU216DAVISVP2,2013-11-14 09:12:00,
2013-11-14 03:17:00,29.2,18.9,30.28,NNW,332,1.0,7.0,65,0.00,,,0.00,WUHU216DAVISVP2,2013-11-14 09:17:00,
2013-11-14 03:22:00,29.1,18.8,30.28,NNW,332,4.0,7.0,65,0.00,,,0.00,WUHU216DAVISVP2,2013-11-14 09:22:00,
2013-11-14 03:27:00,29.1,18.9,30.28,NNW,332,2.0,7.0,65,0.00,,,0.00,WUHU216DAVISVP2,2013-11-14 09:27:00,
2013-11-14 03:32:00,29.1,18.9,30.28,NNW,332,2.0,6.0,65,0.00,,,0.00,WUHU216DAVISVP2,2013-11-14 09:32:00,
2013-11-14 03:37:00,28.9,19.1,30.27,NNW,332,3.0,6.0,66,0.00,,,0.00,WUHU216DAVISVP2,2013-11-14 09:37:00,
2013-11-14 03:42:00,28.9,19.0,30.27,NNW,331,4.0,7.0,66,0.00,,,0.00,WUHU216DAVISVP2,2013-11-14 09:42:00,
2013-11-14 03:47:00,28.8,19.3,30.27,NNW,330,4.0,7.0,67,0.00,,,0.00,WUHU216DAVISVP2,2013-11-14 09:47:00,
2013-11-14 03:52:00,28.7,19.2,30.27,NNW,331,4.0,8.0,67,0.00,,,0.00,WUHU216DAVISVP2,2013-11-14 09:52:00,
2013-11-14 03:57:00,28.7,19.2,30.27,NNW,331,6.0,8.0,67,0.00,,,0.00,WUHU216DAVISVP2,2013-11-14 09:57:00,
2013-11-14 04:02:00,28.8,19.0,30.27,NNW,336,0.0,8.0,66,0.00,,,0.00,WUHU216DAVISVP2,2013-11-14 10:02:00,
2013-11-14 04:07:00,28.9,19.0,30.27,NNW,337,5.0,8.0,66,0.00,,,0.00,WUHU216DAVISVP2,2013-11-14 10:07:00,
2013-11-14 04:12:00,29.0,19.1,30.27,NNW,333,8.0,9.0,66,0.00,,,0.00,WUHU216DAVISVP2,2013-11-14 10:12:00,
2013-11-14 04:17:00,29.1,18.9,30.27,NNW,334,4.0,9.0,65,0.00,,,0.00,WUHU216DAVISVP2,2013-11-14 10:17:00,
2013-11-14 04:22:00,29.1,18.9,30.27,NNW,338,7.0,9.0,65,0.00,,,0.00,WUHU216DAVISVP2,2013-11-14 10:22:00,
2013-11-14 04:27:00,29.3,19.0,30.27,NNW,342,6.0,9.0,65,0.00,,,0.00,WUHU216DAVISVP2,2013-11-14 10:27:00,
2013-11-14 04:32:00,29.3,19.0,30.27,NNW,343,5.0,8.0,65,0.00,,,0.00,WUHU216DAVISVP2,2013-11-14 10:32:00,
2013-11-14 04:37:00,29.2,19.0,30.27,NNW,343,4.0,8.0,65,0.00,,,0.00,WUHU216DAVISVP2,2013-11-14 10:37:00,
2013-11-14 04:42:00,29.2,18.9,30.27,NNW,341,4.0,9.0,65,0.00,,,0.00,WUHU216DAVISVP2,2013-11-14 10:42:00,
2013-11-14 04:47:00,29.1,18.8,30.27,NNW,343,5.0,9.0,65,0.00,,,0.00,WUHU216DAVISVP2,2013-11-14 10:47:00,
2013-11-14 04:52:00,29.1,18.9,30.27,NNW,341,7.0,9.0,65,0.00,,,0.00,WUHU216DAVISVP2,2013-11-14 10:52:00,
2013-11-14 04:57:00,29.0,19.2,30.26,NNW,339,6.0,9.0,66,0.00,,,0.00,WUHU216DAVISVP2,2013-11-14 10:57:00,
2013-11-14 05:02:00,29.1,19.2,30.26,NNW,337,7.0,9.0,66,0.00,,,0.00,WUHU216DAVISVP2,2013-11-14 11:02:00,
2013-11-14 05:07:00,29.1,19.2,30.26,NNW,333,5.0,9.0,66,0.00,,,0.00,WUHU216DAVISVP2,2013-11-14 11:07:00,
2013-11-14 05:12:00,29.0,19.1,30.26,NNW,336,6.0,8.0,66,0.00,,,0.00,WUHU216DAVISVP2,2013-11-14 11:12:00,
2013-11-14 05:17:00,29.1,19.2,30.26,NNW,341,5.0,9.0,66,0.00,,,0.00,WUHU216DAVISVP2,2013-11-14 11:17:00,
2013-11-14 05:22:00,29.1,19.2,30.26,NNW,342,4.0,9.0,66,0.00,,,0.00,WUHU216DAVISVP2,2013-11-14 11:22:00,
2013-11-14 05:27:00,29.0,19.1,30.26,NNW,342,5.0,9.0,66,0.00,,,0.00,WUHU216DAVISVP2,2013-11-14 11:27:00,
2013-11-14 05:32:00,29.1,19.2,30.26,NNW,342,4.0,9.0,66,0.00,,,0.00,WUHU216DAVISVP2,2013-11-14 11:32:00,
2013-11-14 05:37:00,29.1,19.2,30.26,NNW,342,3.0,7.0,66,0.00,,,0.00,WUHU216DAVISVP2,2013-11-14 11:37:00,
2013-11-14 05:42:00,29.0,19.5,30.26,NNW,342,4.0,7.0,67,0.00,,,0.00,WUHU216DAVISVP2,2013-11-14 11:42:00,
2013-11-14 05:47:00,28.9,19.4,30.27,NNW,341,4.0,7.0,67,0.00,,,0.00,WUHU216DAVISVP2,2013-11-14 11:47:00,
2013-11-14 05:52:00,28.9,19.4,30.26,NNW,341,6.0,7.0,67,0.00,,,0.00,WUHU216DAVISVP2,2013-11-14 11:52:00,
2013-11-14 05:57:00,28.8,19.6,30.26,NNW,341,5.0,7.0,68,0.00,,,0.00,WUHU216DAVISVP2,2013-11-14 11:57:00,
2013-11-14 06:02:00,28.7,19.6,30.26,NNW,341,4.0,6.0,68,0.00,,,0.00,WUHU216DAVISVP2,2013-11-14 12:02:00,
2013-11-14 06:07:00,28.7,19.5,30.26,NNW,341,3.0,7.0,68,0.00,,,0.00,WUHU216DAVISVP2,2013-11-14 12:07:00,
2013-11-14 06:12:00,28.6,19.5,30.26,NNW,341,2.0,7.0,68,0.00,,,0.00,WUHU216DAVISVP2,2013-11-14 12:12:00,
2013-11-14 06:17:00,28.6,19.7,30.26,NNW,341,2.0,7.0,69,0.00,,,0.00,WUHU216DAVISVP2,2013-11-14 12:17:00,
2013-11-14 06:22:00,28.5,19.7,30.26,NNW,341,3.0,7.0,69,0.00,,,0.00,WUHU216DAVISVP2,2013-11-14 12:22:00,
2013-11-14 06:27:00,28.3,19.5,30.26,NNW,341,2.0,6.0,69,0.00,,,0.00,WUHU216DAVISVP2,2013-11-14 12:27:00,
2013-11-14 06:32:00,28.3,19.4,30.26,NNW,341,2.0,5.0,69,0.00,,,0.00,WUHU216DAVISVP2,2013-11-14 12:32:00,
2013-11-14 06:37:00,28.2,19.7,30.26,NNW,341,3.0,6.0,70,0.00,,,0.00,WUHU216DAVISVP2,2013-11-14 12:37:00,
2013-11-14 06:42:00,28.1,19.7,30.26,NNW,341,0.0,6.0,70,0.00,,,0.00,WUHU216DAVISVP2,2013-11-14 12:42:00,
2013-11-14 06:47:00,28.1,19.6,30.26,NNW,341,2.0,6.0,70,0.00,,,0.00,WUHU216DAVISVP2,2013-11-14 12:47:00,
2013-11-14 06:52:00,28.1,19.6,30.26,NNW,341,5.0,6.0,70,0.00,,,0.00,WUHU216DAVISVP2,2013-11-14 12:52:00,
2013-11-14 06:57:00,28.1,19.7,30.26,NNW,341,3.0,6.0,70,0.00,,,0.00,WUHU216DAVISVP2,2013-11-14 12:57:00,
2013-11-14 07:02:00,28.2,20.0,30.26,NNW,339,4.0,6.0,71,0.00,,,0.00,WUHU216DAVISVP2,2013-11-14 13:02:00,
2013-11-14 07:07:00,28.1,20.0,30.26,NNW,339,3.0,7.0,71,0.00,,,0.00,WUHU216DAVISVP2,2013-11-14 13:07:00,
2013-11-14 07:12:00,28.2,20.1,30.25,NNW,339,5.0,7.0,71,0.00,,,0.00,WUHU216DAVISVP2,2013-11-14 13:12:00,
2013-11-14 07:17:00,28.4,20.2,30.25,NNW,338,4.0,7.0,71,0.00,,,0.00,WUHU216DAVISVP2,2013-11-14 13:17:00,
2013-11-14 07:22:00,28.6,20.5,30.25,NNW,333,5.0,8.0,71,0.00,,,0.00,WUHU216DAVISVP2,2013-11-14 13:22:00,
2013-11-14 07:27:00,28.9,20.7,30.25,NNW,333,5.0,8.0,71,0.00,,,0.00,WUHU216DAVISVP2,2013-11-14 13:27:00,
2013-11-14 07:32:00,29.2,20.7,30.26,NNW,333,4.0,8.0,70,0.00,,,0.00,WUHU216DAVISVP2,2013-11-14 13:32:00,
2013-11-14 07:37:00,29.4,20.9,30.26,NNW,333,6.0,8.0,70,0.00,,,0.00,WUHU216DAVISVP2,2013-11-14 13:37:00,
2013-11-14 07:42:00,29.9,21.3,30.26,NNW,331,6.0,9.0,70,0.00,,,0.00,WUHU216DAVISVP2,2013-11-14 13:42:00,
2013-11-14 07:47:00,30.2,21.3,30.26,NNW,331,5.0,9.0,69,0.00,,,0.00,WUHU216DAVISVP2,2013-11-14 13:47:00,
2013-11-14 07:52:00,30.7,21.8,30.26,NNW,328,5.0,9.0,69,0.00,,,0.00,WUHU216DAVISVP2,2013-11-14 13:52:00,
2013-11-14 07:57:00,31.3,22.4,30.26,NNW,327,6.0,9.0,69,0.00,,,0.00,WUHU216DAVISVP2,2013-11-14 13:57:00,
2013-11-14 08:02:00,31.9,22.3,30.26,NNW,330,5.0,9.0,67,0.00,,,0.00,WUHU216DAVISVP2,2013-11-14 14:02:00,
2013-11-14 08:07:00,32.8,22.7,30.26,NNW,329,5.0,9.0,66,0.00,,,0.00,WUHU216DAVISVP2,2013-11-14 14:07:00,
2013-11-14 08:12:00,33.5,22.7,30.25,NW,326,4.0,8.0,64,0.00,,,0.00,WUHU216DAVISVP2,2013-11-14 14:12:00,
2013-11-14 08:17:00,34.2,22.9,30.26,NW,325,4.0,8.0,63,0.00,,,0.00,WUHU216DAVISVP2,2013-11-14 14:17:00,
2013-11-14 08:22:00,34.9,22.9,30.25,NNW,346,4.0,10.0,61,0.00,,,0.00,WUHU216DAVISVP2,2013-11-14 14:22:00,
2013-11-14 08:27:00,35.4,22.6,30.25,NNW,340,4.0,10.0,59,0.00,,,0.00,WUHU216DAVISVP2,2013-11-14 14:27:00,
2013-11-14 08:32:00,35.9,22.2,30.25,NNW,339,4.0,10.0,57,0.00,,,0.00,WUHU216DAVISVP2,2013-11-14 14:32:00,
2013-11-14 08:37:00,36.5,22.3,30.25,NNW,340,5.0,10.0,56,0.00,,,0.00,WUHU216DAVISVP2,2013-11-14 14:37:00,
2013-11-14 08:42:00,37.1,22.0,30.25,North,3,3.0,8.0,54,0.00,,,0.00,WUHU216DAVISVP2,2013-11-14 14:42:00,
2013-11-14 08:47:00,37.7,21.7,30.25,NNE,25,9.0,10.0,52,0.00,,,0.00,WUHU216DAVISVP2,2013-11-14 14:47:00,
2013-11-14 08:52:00,38.1,20.5,30.25,NE,52,3.0,10.0,49,0.00,,,0.00,WUHU216DAVISVP2,2013-11-14 14:52:00,
2013-11-14 08:57:00,38.2,21.2,30.25,NE,34,2.0,11.0,50,0.00,,,0.00,WUHU216DAVISVP2,2013-11-14 14:57:00,
2013-11-14 09:02:00,38.4,21.3,30.25,North,2,8.0,11.0,50,0.00,,,0.00,WUHU216DAVISVP2,2013-11-14 15:02:00,
2013-11-14 09:07:00,38.4,20.4,30.25,NNE,20,6.0,11.0,48,0.00,,,0.00,WUHU216DAVISVP2,2013-11-14 15:07:00,
2013-11-14 09:12:00,38.3,20.2,30.25,NNE,20,6.0,11.0,48,0.00,,,0.00,WUHU216DAVISVP2,2013-11-14 15:12:00,
2013-11-14 09:17:00,38.4,21.4,30.25,NNE,33,7.0,11.0,50,0.00,,,0.00,WUHU216DAVISVP2,2013-11-14 15:17:00,
2013-11-14 09:22:00,38.5,20.9,30.25,NE,52,5.0,11.0,49,0.00,,,0.00,WUHU216DAVISVP2,2013-11-14 15:22:00,
2013-11-14 09:27:00,38.5,20.9,30.25,NNE,20,2.0,11.0,49,0.00,,,0.00,WUHU216DAVISVP2,2013-11-14 15:27:00,
2013-11-14 09:32:00,38.4,20.8,30.25,North,10,1.0,11.0,49,0.00,,,0.00,WUHU216DAVISVP2,2013-11-14 15:32:00,
2013-11-14 09:37:00,38.5,20.4,30.25,NE,40,5.0,11.0,48,0.00,,,0.00,WUHU216DAVISVP2,2013-11-14 15:37:00,
2013-11-14 09:42:00,38.6,21.5,30.25,NE,43,5.0,11.0,50,0.00,,,0.00,WUHU216DAVISVP2,2013-11-14 15:42:00,
2013-11-14 09:47:00,38.9,20.3,30.24,NE,39,4.0,11.0,47,0.00,,,0.00,WUHU216DAVISVP2,2013-11-14 15:47:00,
2013-11-14 09:52:00,39.1,19.9,30.24,NNW,348,7.0,10.0,46,0.00,,,0.00,WUHU216DAVISVP2,2013-11-14 15:52:00,
2013-11-14 09:57:00,39.6,19.8,30.24,NE,38,5.0,11.0,45,0.00,,,0.00,WUHU216DAVISVP2,2013-11-14 15:57:00,
2013-11-14 10:02:00,39.7,18.9,30.24,ENE,71,6.0,12.0,43,0.00,,,0.00,WUHU216DAVISVP2,2013-11-14 16:02:00,
2013-11-14 10:07:00,39.8,19.5,30.24,ENE,66,8.0,13.0,44,0.00,,,0.00,WUHU216DAVISVP2,2013-11-14 16:07:00,
2013-11-14 10:12:00,40.0,19.7,30.24,North,11,10.0,13.0,44,0.00,,,0.00,WUHU216DAVISVP2,2013-11-14 16:12:00,
2013-11-14 10:17:00,40.5,19.5,30.24,NNE,15,6.0,13.0,43,0.00,,,0.00,WUHU216DAVISVP2,2013-11-14 16:17:00,
2013-11-14 10:22:00,40.5,19.6,30.23,NNE,25,3.0,13.0,43,0.00,,,0.00,WUHU216DAVISVP2,2013-11-14 16:22:00,
2013-11-14 10:27:00,40.8,19.3,30.23,NNE,25,2.0,14.0,42,0.00,,,0.00,WUHU216DAVISVP2,2013-11-14 16:27:00,
2013-11-14 10:32:00,40.7,19.8,30.23,NNW,348,8.0,14.0,43,0.00,,,0.00,WUHU216DAVISVP2,2013-11-14 16:32:00,
2013-11-14 10:37:00,40.9,20.5,30.23,NE,39,5.0,14.0,44,0.00,,,0.00,WUHU216DAVISVP2,2013-11-14 16:37:00,
2013-11-14 10:42:00,41.1,20.7,30.23,NE,52,9.0,13.0,44,0.00,,,0.00,WUHU216DAVISVP2,2013-11-14 16:42:00,
2013-11-14 10:47:00,41.4,19.8,30.23,NNE,25,5.0,13.0,42,0.00,,,0.00,WUHU216DAVISVP2,2013-11-14 16:47:00,
2013-11-14 10:52:00,41.5,20.5,30.22,NNE,20,12.0,13.0,43,0.00,,,0.00,WUHU216DAVISVP2,2013-11-14 16:52:00,
2013-11-14 10:57:00,42.1,20.5,30.22,NNE,15,2.0,13.0,42,0.00,,,0.00,WUHU216DAVISVP2,2013-11-14 16:57:00,
2013-11-14 11:02:00,42.5,19.7,30.22,NE,39,2.0,13.0,40,0.00,,,0.00,WUHU216DAVISVP2,2013-11-14 17:02:00,
2013-11-14 11:07:00,42.7,20.5,30.21,North,354,8.0,14.0,41,0.00,,,0.00,WUHU216DAVISVP2,2013-11-14 17:07:00,
2013-11-14 11:12:00,43.1,19.6,30.21,NNE,29,4.0,14.0,39,0.00,,,0.00,WUHU216DAVISVP2,2013-11-14 17:12:00,
2013-11-14 11:17:00,43.5,20.6,30.20,NNE,30,4.0,14.0,40,0.00,,,0.00,WUHU216DAVISVP2,2013-11-14 17:17:00,
2013-11-14 11:22:00,43.8,20.2,30.20,NNE,15,2.0,14.0,39,0.00,,,0.00,WUHU216DAVISVP2,2013-11-14 17:22:00,
2013-11-14 11:27:00,44.0,19.8,30.20,North,7,9.0,15.0,38,0.00,,,0.00,WUHU216DAVISVP2,2013-11-14 17:27:00,
2013-11-14 11:32:00,43.8,19.0,30.19,North,2,3.0,15.0,37,0.00,,,0.00,WUHU216DAVISVP2,2013-11-14 17:32:00,
2013-11-14 11:37:00,44.2,18.7,30.19,NE,45,8.0,16.0,36,0.00,,,0.00,WUHU216DAVISVP2,2013-11-14 17:37:00,
2013-11-14 11:42:00,44.1,18.6,30.19,NNE,15,5.0,16.0,36,0.00,,,0.00,WUHU216DAVISVP2,2013-11-14 17:42:00,
2013-11-14 11:47:00,44.2,18.1,30.18,NNE,20,9.0,16.0,35,0.00,,,0.00,WUHU216DAVISVP2,2013-11-14 17:47:00,
2013-11-14 11:52:00,44.5,19.6,30.18,NNE,30,5.0,16.0,37,0.00,,,0.00,WUHU216DAVISVP2,2013-11-14 17:52:00,
2013-11-14 11:57:00,45.0,17.4,30.17,NNE,25,4.0,13.0,33,0.00,,,0.00,WUHU216DAVISVP2,2013-11-14 17:57:00,
2013-11-14 12:02:00,45.2,17.5,30.17,North,359,9.0,14.0,33,0.00,,,0.00,WUHU216DAVISVP2,2013-11-14 18:02:00,
2013-11-14 12:07:00,45.2,18.3,30.16,NNW,345,13.0,14.0,34,0.00,,,0.00,WUHU216DAVISVP2,2013-11-14 18:07:00,
2013-11-14 12:12:00,45.2,16.8,30.16,North,360,6.0,14.0,32,0.00,,,0.00,WUHU216DAVISVP2,2013-11-14 18:12:00,
2013-11-14 12:17:00,45.6,16.4,30.15,NNE,31,2.0,14.0,31,0.00,,,0.00,WUHU216DAVISVP2,2013-11-14 18:17:00,
2013-11-14 12:22:00,45.6,15.7,30.15,NE,44,5.0,13.0,30,0.00,,,0.00,WUHU216DAVISVP2,2013-11-14 18:22:00,
2013-11-14 12:27:00,46.0,16.8,30.15,NNW,345,11.0,13.0,31,0.00,,,0.00,WUHU216DAVISVP2,2013-11-14 18:27:00,
2013-11-14 12:32:00,46.0,16.0,30.15,NE,35,4.0,13.0,30,0.00,,,0.00,WUHU216DAVISVP2,2013-11-14 18:32:00,
2013-11-14 12:37:00,46.3,17.1,30.14,North,360,2.0,12.0,31,0.00,,,0.00,WUHU216DAVISVP2,2013-11-14 18:37:00,
2013-11-14 12:42:00,47.0,16.2,30.14,ENE,63,10.0,12.0,29,0.00,,,0.00,WUHU216DAVISVP2,2013-11-14 18:42:00,
2013-11-14 12:47:00,47.0,15.4,30.14,NNE,29,11.0,12.0,28,0.00,,,0.00,WUHU216DAVISVP2,2013-11-14 18:47:00,
2013-11-14 12:52:00,47.3,15.6,30.14,NE,43,6.0,14.0,28,0.00,,,0.00,WUHU216DAVISVP2,2013-11-14 18:52:00,
2013-11-14 12:57:00,47.5,15.8,30.13,NNE,25,12.0,14.0,28,0.00,,,0.00,WUHU216DAVISVP2,2013-11-14 18:57:00,
2013-11-14 13:02:00,47.5,16.6,30.13,North,8,4.0,17.0,29,0.00,,,0.00,WUHU216DAVISVP2,2013-11-14 19:02:00,
2013-11-14 13:07:00,47.6,15.1,30.13,North,6,6.0,17.0,27,0.00,,,0.00,WUHU216DAVISVP2,2013-11-14 19:07:00,
2013-11-14 13:12:00,47.8,16.9,30.13,North,356,11.0,17.0,29,0.00,,,0.00,WUHU216DAVISVP2,2013-11-14 19:12:00,
2013-11-14 13:17:00,47.9,16.2,30.12,NE,42,5.0,17.0,28,0.00,,,0.00,WUHU216DAVISVP2,2013-11-14 19:17:00,
2013-11-14 13:22:00,47.7,14.3,30.12,ENE,70,6.0,17.0,26,0.00,,,0.00,WUHU216DAVISVP2,2013-11-14 19:22:00,
2013-11-14 13:27:00,48.0,16.2,30.11,North,10,11.0,17.0,28,0.00,,,0.00,WUHU216DAVISVP2,2013-11-14 19:27:00,
2013-11-14 13:32:00,48.1,15.5,30.11,NNE,20,8.0,18.0,27,0.00,,,0.00,WUHU216DAVISVP2,2013-11-14 19:32:00,
2013-11-14 13:37:00,48.4,16.6,30.11,NE,42,4.0,18.0,28,0.00,,,0.00,WUHU216DAVISVP2,2013-11-14 19:37:00,
2013-11-14 13:42:00,48.6,16.0,30.11,NE,50,10.0,18.0,27,0.00,,,0.00,WUHU216DAVISVP2,2013-11-14 19:42:00,
2013-11-14 13:47:00,48.8,16.9,30.11,NE,49,2.0,18.0,28,0.00,,,0.00,WUHU216DAVISVP2,2013-11-14 19:47:00,
2013-11-14 13:52:00,49.0,16.3,30.11,NNE,25,9.0,16.0,27,0.00,,,0.00,WUHU216DAVISVP2,2013-11-14 19:52:00,
2013-11-14 13:57:00,49.2,15.5,30.11,NE,38,13.0,16.0,26,0.00,,,0.00,WUHU216DAVISVP2,2013-11-14 19:57:00,
2013-11-14 14:02:00,49.0,16.3,30.10,North,349,7.0,16.0,27,0.00,,,0.00,WUHU216DAVISVP2,2013-11-14 20:02:00,
2013-11-14 14:07:00,49.1,16.3,30.10,NNE,31,4.0,16.0,27,0.00,,,0.00,WUHU216DAVISVP2,2013-11-14 20:07:00,
2013-11-14 14:12:00,49.0,15.4,30.10,NNE,33,4.0,16.0,26,0.00,,,0.00,WUHU216DAVISVP2,2013-11-14 20:12:00,
2013-11-14 14:17:00,49.1,16.3,30.10,NE,47,11.0,15.0,27,0.00,,,0.00,WUHU216DAVISVP2,2013-11-14 20:17:00,
2013-11-14 14:22:00,49.0,17.9,30.09,NE,35,6.0,15.0,29,0.00,,,0.00,WUHU216DAVISVP2,2013-11-14 20:22:00,
2013-11-14 14:27:00,49.2,17.3,30.09,NNE,30,5.0,15.0,28,0.00,,,0.00,WUHU216DAVISVP2,2013-11-14 20:27:00,
2013-11-14 14:32:00,49.3,18.9,30.09,NNE,15,3.0,12.0,30,0.00,,,0.00,WUHU216DAVISVP2,2013-11-14 20:32:00,
2013-11-14 14:37:00,49.5,19.8,30.09,North,358,3.0,12.0,31,0.00,,,0.00,WUHU216DAVISVP2,2013-11-14 20:37:00,
2013-11-14 14:42:00,49.4,20.6,30.08,NNW,341,5.0,11.0,32,0.00,,,0.00,WUHU216DAVISVP2,2013-11-14 20:42:00,
2013-11-14 14:47:00,49.5,21.3,30.08,North,356,2.0,11.0,33,0.00,,,0.00,WUHU216DAVISVP2,2013-11-14 20:47:00,
2013-11-14 14:52:00,49.6,20.7,30.08,North,357,3.0,11.0,32,0.00,,,0.00,WUHU216DAVISVP2,2013-11-14 20:52:00,
2013-11-14 14:57:00,49.8,20.9,30.08,NNE,20,8.0,11.0,32,0.00,,,0.00,WUHU216DAVISVP2,2013-11-14 20:57:00,
2013-11-14 15:02:00,50.1,17.2,30.08,North,6,8.0,11.0,27,0.00,,,0.00,WUHU216DAVISVP2,2013-11-14 21:02:00,
2013-11-14 15:07:00,50.2,18.1,30.08,NNE,20,5.0,11.0,28,0.00,,,0.00,WUHU216DAVISVP2,2013-11-14 21:07:00,
2013-11-14 15:12:00,50.4,16.6,30.08,North,8,5.0,11.0,26,0.00,,,0.00,WUHU216DAVISVP2,2013-11-14 21:12:00,
2013-11-14 15:17:00,50.5,19.2,30.08,NE,42,7.0,12.0,29,0.00,,,0.00,WUHU216DAVISVP2,2013-11-14 21:17:00,
2013-11-14 15:22:00,50.4,17.5,30.08,NNE,15,5.0,12.0,27,0.00,,,0.00,WUHU216DAVISVP2,2013-11-14 21:22:00,
2013-11-14 15:27:00,50.2,17.3,30.08,NE,41,3.0,12.0,27,0.00,,,0.00,WUHU216DAVISVP2,2013-11-14 21:27:00,
2013-11-14 15:32:00,50.1,17.2,30.08,NNE,15,4.0,12.0,27,0.00,,,0.00,WUHU216DAVISVP2,2013-11-14 21:32:00,
2013-11-14 15:37:00,50.2,17.3,30.07,NNE,25,4.0,11.0,27,0.00,,,0.00,WUHU216DAVISVP2,2013-11-14 21:37:00,
2013-11-14 15:42:00,50.2,18.2,30.07,NNE,15,2.0,10.0,28,0.00,,,0.00,WUHU216DAVISVP2,2013-11-14 21:42:00,
2013-11-14 15:47:00,50.3,17.3,30.08,NNE,15,3.0,10.0,27,0.00,,,0.00,WUHU216DAVISVP2,2013-11-14 21:47:00,
2013-11-14 15:52:00,50.4,17.4,30.08,NNE,31,3.0,10.0,27,0.00,,,0.00,WUHU216DAVISVP2,2013-11-14 21:52:00,
2013-11-14 15:57:00,50.4,18.3,30.08,NE,54,2.0,9.0,28,0.00,,,0.00,WUHU216DAVISVP2,2013-11-14 21:57:00,
2013-11-14 16:02:00,50.5,17.6,30.08,NE,38,4.0,9.0,27,0.00,,,0.00,WUHU216DAVISVP2,2013-11-14 22:02:00,
2013-11-14 16:07:00,50.7,18.5,30.07,NE,46,2.0,9.0,28,0.00,,,0.00,WUHU216DAVISVP2,2013-11-14 22:07:00,
2013-11-14 16:12:00,50.8,18.6,30.08,NE,53,5.0,9.0,28,0.00,,,0.00,WUHU216DAVISVP2,2013-11-14 22:12:00,
2013-11-14 16:17:00,50.9,18.7,30.07,NE,52,3.0,9.0,28,0.00,,,0.00,WUHU216DAVISVP2,2013-11-14 22:17:00,
2013-11-14 16:22:00,50.9,18.7,30.07,NE,37,3.0,8.0,28,0.00,,,0.00,WUHU216DAVISVP2,2013-11-14 22:22:00,
2013-11-14 16:27:00,50.9,18.7,30.07,NNE,25,4.0,9.0,28,0.00,,,0.00,WUHU216DAVISVP2,2013-11-14 22:27:00,
2013-11-14 16:32:00,50.9,17.9,30.06,NNE,20,3.0,10.0,27,0.00,,,0.00,WUHU216DAVISVP2,2013-11-14 22:32:00,
2013-11-14 16:37:00,50.9,17.9,30.06,NNE,15,4.0,10.0,27,0.00,,,0.00,WUHU216DAVISVP2,2013-11-14 22:37:00,
2013-11-14 16:42:00,50.8,18.7,30.07,NNE,25,3.0,10.0,28,0.00,,,0.00,WUHU216DAVISVP2,2013-11-14 22:42:00,
2013-11-14 16:47:00,50.8,18.6,30.07,NNE,25,2.0,10.0,28,0.00,,,0.00,WUHU216DAVISVP2,2013-11-14 22:47:00,
2013-11-14 16:52:00,50.5,18.4,30.07,NNE,25,2.0,8.0,28,0.00,,,0.00,WUHU216DAVISVP2,2013-11-14 22:52:00,
2013-11-14 16:57:00,50.5,19.9,30.07,NNE,25,1.0,5.0,30,0.00,,,0.00,WUHU216DAVISVP2,2013-11-14 22:57:00,
2013-11-14 17:02:00,50.3,19.8,30.07,NNE,25,1.0,5.0,30,0.00,,,0.00,WUHU216DAVISVP2,2013-11-14 23:02:00,
2013-11-14 17:07:00,50.3,19.8,30.06,NNE,25,0.0,5.0,30,0.00,,,0.00,WUHU216DAVISVP2,2013-11-14 23:07:00,
2013-11-14 17:12:00,50.2,19.7,30.06,NNE,25,1.0,4.0,30,0.00,,,0.00,WUHU216DAVISVP2,2013-11-14 23:12:00,
2013-11-14 17:17:00,50.3,20.5,30.06,NNE,25,2.0,4.0,31,0.00,,,0.00,WUHU216DAVISVP2,2013-11-14 23:17:00,
2013-11-14 17:22:00,50.1,19.6,30.06,NNE,25,0.0,4.0,30,0.00,,,0.00,WUHU216DAVISVP2,2013-11-14 23:22:00,
2013-11-14 17:27:00,50.0,20.3,30.06,NNE,25,2.0,4.0,31,0.00,,,0.00,WUHU216DAVISVP2,2013-11-14 23:27:00,
2013-11-14 17:32:00,49.8,21.6,30.06,NNE,25,3.0,4.0,33,0.00,,,0.00,WUHU216DAVISVP2,2013-11-14 23:32:00,
2013-11-14 17:37:00,49.5,21.3,30.05,NNE,25,2.0,5.0,33,0.00,,,0.00,WUHU216DAVISVP2,2013-11-14 23:37:00,
2013-11-14 17:42:00,49.3,21.2,30.05,North,4,4.0,5.0,33,0.00,,,0.00,WUHU216DAVISVP2,2013-11-14 23:42:00,
2013-11-14 17:47:00,49.3,21.2,30.05,North,356,2.0,5.0,33,0.00,,,0.00,WUHU216DAVISVP2,2013-11-14 23:47:00,
2013-11-14 17:52:00,49.4,21.3,30.05,North,353,4.0,5.0,33,0.00,,,0.00,WUHU216DAVISVP2,2013-11-14 23:52:00,
2013-11-14 17:57:00,49.7,22.2,30.05,NNW,343,3.0,7.0,34,0.00,,,0.00,WUHU216DAVISVP2,2013-11-14 23:57:00,
2013-11-14 18:02:00,49.8,23.0,30.05,North,349,4.0,7.0,35,0.00,,,0.00,WUHU216DAVISVP2,2013-11-15 00:02:00,
2013-11-14 18:07:00,49.7,23.6,30.05,NNW,341,7.0,8.0,36,0.00,,,0.00,WUHU216DAVISVP2,2013-11-15 00:07:00,
2013-11-14 18:12:00,49.6,24.2,30.05,North,350,4.0,8.0,37,0.00,,,0.00,WUHU216DAVISVP2,2013-11-15 00:12:00,
2013-11-14 18:17:00,49.6,24.8,30.05,North,349,5.0,8.0,38,0.00,,,0.00,WUHU216DAVISVP2,2013-11-15 00:17:00,
2013-11-14 18:22:00,49.4,24.7,30.05,NNW,348,4.0,8.0,38,0.00,,,0.00,WUHU216DAVISVP2,2013-11-15 00:22:00,
2013-11-14 18:27:00,49.3,24.5,30.06,North,350,4.0,9.0,38,0.00,,,0.00,WUHU216DAVISVP2,2013-11-15 00:27:00,
2013-11-14 18:32:00,49.2,25.1,30.05,North,353,5.0,9.0,39,0.00,,,0.00,WUHU216DAVISVP2,2013-11-15 00:32:00,
2013-11-14 18:37:00,49.0,24.9,30.06,North,351,5.0,9.0,39,0.00,,,0.00,WUHU216DAVISVP2,2013-11-15 00:37:00,
2013-11-14 18:42:00,48.9,25.4,30.06,NNW,348,4.0,9.0,40,0.00,,,0.00,WUHU216DAVISVP2,2013-11-15 00:42:00,
2013-11-14 18:47:00,48.8,25.3,30.06,NNW,338,8.0,9.0,40,0.00,,,0.00,WUHU216DAVISVP2,2013-11-15 00:47:00,
2013-11-14 18:52:00,48.6,25.8,30.06,North,358,5.0,10.0,41,0.00,,,0.00,WUHU216DAVISVP2,2013-11-15 00:52:00,
2013-11-14 18:57:00,48.5,25.7,30.06,North,360,6.0,11.0,41,0.00,,,0.00,WUHU216DAVISVP2,2013-11-15 00:57:00,
2013-11-14 19:02:00,48.3,26.1,30.06,North,349,5.0,12.0,42,0.00,,,0.00,WUHU216DAVISVP2,2013-11-15 01:02:00,
2013-11-14 19:07:00,48.2,26.0,30.06,North,349,5.0,12.0,42,0.00,,,0.00,WUHU216DAVISVP2,2013-11-15 01:07:00,
2013-11-14 19:12:00,48.0,26.4,30.06,North,351,7.0,12.0,43,0.00,,,0.00,WUHU216DAVISVP2,2013-11-15 01:12:00,
2013-11-14 19:17:00,47.7,26.2,30.06,North,358,5.0,10.0,43,0.00,,,0.00,WUHU216DAVISVP2,2013-11-15 01:17:00,
2013-11-14 19:22:00,47.5,26.0,30.07,North,349,3.0,10.0,43,0.00,,,0.00,WUHU216DAVISVP2,2013-11-15 01:22:00,
2013-11-14 19:27:00,47.3,25.7,30.07,NNW,345,3.0,10.0,43,0.00,,,0.00,WUHU216DAVISVP2,2013-11-15 01:27:00,
2013-11-14 19:32:00,47.0,25.5,30.06,North,349,3.0,10.0,43,0.00,,,0.00,WUHU216DAVISVP2,2013-11-15 01:32:00,
2013-11-14 19:37:00,46.9,26.0,30.07,North,351,6.0,10.0,44,0.00,,,0.00,WUHU216DAVISVP2,2013-11-15 01:37:00,
2013-11-14 19:42:00,46.6,25.7,30.07,North,351,4.0,8.0,44,0.00,,,0.00,WUHU216DAVISVP2,2013-11-15 01:42:00,
2013-11-14 19:47:00,46.3,25.5,30.07,North,351,5.0,8.0,44,0.00,,,0.00,WUHU216DAVISVP2,2013-11-15 01:47:00,
2013-11-14 19:52:00,45.9,25.1,30.07,North,355,4.0,8.0,44,0.00,,,0.00,WUHU216DAVISVP2,2013-11-15 01:52:00,
2013-11-14 19:57:00,45.7,25.4,30.07,North,352,8.0,9.0,45,0.00,,,0.00,WUHU216DAVISVP2,2013-11-15 01:57:00,
2013-11-14 20:02:00,45.4,25.2,30.06,NNW,336,8.0,12.0,45,0.00,,,0.00,WUHU216DAVISVP2,2013-11-15 02:02:00,
2013-11-14 20:07:00,45.5,25.2,30.06,North,351,4.0,12.0,45,0.00,,,0.00,WUHU216DAVISVP2,2013-11-15 02:07:00,
2013-11-14 20:12:00,45.4,25.1,30.06,NNW,343,7.0,12.0,45,0.00,,,0.00,WUHU216DAVISVP2,2013-11-15 02:12:00,
2013-11-14 20:17:00,45.2,25.0,30.06,North,349,6.0,12.0,45,0.00,,,0.00,WUHU216DAVISVP2,2013-11-15 02:17:00,
2013-11-14 20:22:00,45.0,25.3,30.06,North,353,5.0,10.0,46,0.00,,,0.00,WUHU216DAVISVP2,2013-11-15 02:22:00,
2013-11-14 20:27:00,44.8,25.1,30.06,NNW,348,6.0,10.0,46,0.00,,,0.00,WUHU216DAVISVP2,2013-11-15 02:27:00,
2013-11-14 20:32:00,44.6,25.0,30.06,North,356,6.0,11.0,46,0.00,,,0.00,WUHU216DAVISVP2,2013-11-15 02:32:00,
2013-11-14 20:37:00,44.5,24.9,30.06,NNW,341,6.0,11.0,46,0.00,,,0.00,WUHU216DAVISVP2,2013-11-15 02:37:00,
2013-11-14 20:42:00,44.3,25.2,30.06,NNW,347,6.0,11.0,47,0.00,,,0.00,WUHU216DAVISVP2,2013-11-15 02:42:00,
2013-11-14 20:47:00,44.1,25.1,30.06,NNW,345,5.0,11.0,47,0.00,,,0.00,WUHU216DAVISVP2,2013-11-15 02:47:00,
2013-11-14 20:52:00,43.9,24.9,30.06,North,358,3.0,11.0,47,0.00,,,0.00,WUHU216DAVISVP2,2013-11-15 02:52:00,
2013-11-14 20:57:00,43.7,25.2,30.06,NNW,341,5.0,10.0,48,0.00,,,0.00,WUHU216DAVISVP2,2013-11-15 02:57:00,
2013-11-14 21:02:00,43.4,25.0,30.06,NNW,344,8.0,10.0,48,0.00,,,0.00,WUHU216DAVISVP2,2013-11-15 03:02:00,
2013-11-14 21:07:00,43.3,24.9,30.06,North,353,7.0,11.0,48,0.00,,,0.00,WUHU216DAVISVP2,2013-11-15 03:07:00,
2013-11-14 21:12:00,43.2,25.2,30.06,NNW,347,8.0,11.0,49,0.00,,,0.00,WUHU216DAVISVP2,2013-11-15 03:12:00,
2013-11-14 21:17:00,43.2,25.2,30.06,NNW,335,6.0,11.0,49,0.00,,,0.00,WUHU216DAVISVP2,2013-11-15 03:17:00,
2013-11-14 21:22:00,43.0,25.1,30.06,NNW,340,4.0,11.0,49,0.00,,,0.00,WUHU216DAVISVP2,2013-11-15 03:22:00,
2013-11-14 21:27:00,42.8,24.9,30.06,NNW,343,3.0,11.0,49,0.00,,,0.00,WUHU216DAVISVP2,2013-11-15 03:27:00,
2013-11-14 21:32:00,42.8,25.4,30.06,NNW,334,6.0,10.0,50,0.00,,,0.00,WUHU216DAVISVP2,2013-11-15 03:32:00,
2013-11-14 21:37:00,42.6,25.3,30.06,NNW,335,4.0,10.0,50,0.00,,,0.00,WUHU216DAVISVP2,2013-11-15 03:37:00,
2013-11-14 21:42:00,42.6,25.2,30.05,NNW,345,5.0,11.0,50,0.00,,,0.00,WUHU216DAVISVP2,2013-11-15 03:42:00,
2013-11-14 21:47:00,42.7,25.3,30.05,North,350,5.0,11.0,50,0.00,,,0.00,WUHU216DAVISVP2,2013-11-15 03:47:00,
2013-11-14 21:52:00,42.7,25.8,30.05,NNW,347,5.0,11.0,51,0.00,,,0.00,WUHU216DAVISVP2,2013-11-15 03:52:00,
2013-11-14 21:57:00,42.7,25.7,30.05,NNW,348,9.0,11.0,51,0.00,,,0.00,WUHU216DAVISVP2,2013-11-15 03:57:00,
2013-11-14 22:02:00,42.7,25.8,30.06,North,357,7.0,11.0,51,0.00,,,0.00,WUHU216DAVISVP2,2013-11-15 04:02:00,
2013-11-14 22:07:00,42.7,25.8,30.05,North,353,5.0,11.0,51,0.00,,,0.00,WUHU216DAVISVP2,2013-11-15 04:07:00,
2013-11-14 22:12:00,42.8,25.9,30.05,NNW,344,7.0,11.0,51,0.00,,,0.00,WUHU216DAVISVP2,2013-11-15 04:12:00,
2013-11-14 22:17:00,42.8,25.8,30.05,North,3,9.0,10.0,51,0.00,,,0.00,WUHU216DAVISVP2,2013-11-15 04:17:00,
2013-11-14 22:22:00,42.8,25.9,30.05,NNW,328,6.0,10.0,51,0.00,,,0.00,WUHU216DAVISVP2,2013-11-15 04:22:00,
2013-11-14 22:27:00,43.0,26.1,30.05,NNW,347,5.0,10.0,51,0.00,,,0.00,WUHU216DAVISVP2,2013-11-15 04:27:00,
2013-11-14 22:32:00,43.0,26.1,30.05,NNW,340,2.0,10.0,51,0.00,,,0.00,WUHU216DAVISVP2,2013-11-15 04:32:00,
2013-11-14 22:37:00,43.1,26.1,30.05,NNW,345,5.0,11.0,51,0.00,,,0.00,WUHU216DAVISVP2,2013-11-15 04:37:00,
2013-11-14 22:42:00,43.1,26.1,30.05,North,353,6.0,11.0,51,0.00,,,0.00,WUHU216DAVISVP2,2013-11-15 04:42:00,
2013-11-14 22:47:00,43.0,26.6,30.05,NNW,348,5.0,11.0,52,0.00,,,0.00,WUHU216DAVISVP2,2013-11-15 04:47:00,
2013-11-14 22:52:00,43.1,26.7,30.05,NNW,347,5.0,11.0,52,0.00,,,0.00,WUHU216DAVISVP2,2013-11-15 04:52:00,
2013-11-14 22:57:00,43.1,26.7,30.04,NNW,343,7.0,11.0,52,0.00,,,0.00,WUHU216DAVISVP2,2013-11-15 04:57:00,
2013-11-14 23:01:00,43.1,26.6,30.04,North,354,6.0,11.0,52,0.00,,,0.00,WUHU216DAVISVP2,2013-11-15 05:01:00,
2013-11-14 23:06:00,43.1,26.6,30.04,NNW,348,8.0,11.0,52,0.00,,,0.00,WUHU216DAVISVP2,2013-11-15 05:06:00,
2013-11-14 23:11:00,43.1,26.6,30.05,NNW,347,10.0,12.0,52,0.00,,,0.00,WUHU216DAVISVP2,2013-11-15 05:11:00,
2013-11-14 23:16:00,43.1,26.7,30.05,NNW,342,9.0,12.0,52,0.00,,,0.00,WUHU216DAVISVP2,2013-11-15 05:16:00,
2013-11-14 23:21:00,43.2,26.8,30.05,North,2,5.0,12.0,52,0.00,,,0.00,WUHU216DAVISVP2,2013-11-15 05:21:00,
2013-11-14 23:26:00,43.3,27.3,30.05,North,350,5.0,12.0,53,0.00,,,0.00,WUHU216DAVISVP2,2013-11-15 05:26:00,
2013-11-14 23:31:00,43.3,27.3,30.04,NNW,343,7.0,11.0,53,0.00,,,0.00,WUHU216DAVISVP2,2013-11-15 05:31:00,
2013-11-14 23:36:00,43.4,27.4,30.04,North,356,4.0,11.0,53,0.00,,,0.00,WUHU216DAVISVP2,2013-11-15 05:36:00,
2013-11-14 23:41:00,43.5,27.0,30.04,NNW,337,4.0,8.0,52,0.00,,,0.00,WUHU216DAVISVP2,2013-11-15 05:41:00,
2013-11-14 23:46:00,43.6,27.1,30.05,North,353,3.0,8.0,52,0.00,,,0.00,WUHU216DAVISVP2,2013-11-15 05:46:00,
2013-11-14 23:51:00,43.7,27.2,30.05,North,353,3.0,8.0,52,0.00,,,0.00,WUHU216DAVISVP2,2013-11-15 05:51:00,
2013-11-14 23:56:00,43.9,26.9,30.05,North,6,3.0,9.0,51,0.00,,,0.00,WUHU216DAVISVP2,2013-11-15 05:56:00,